User: anonymous   Login
Location: Unspecified
(0.0000°N, 0.0000°E)
Time: 04:59:58
(UTC+00:00)
Language:

Triad OI-1X - Orbit

View from above orbital plane
View from above orbital plane
View from above satellite
View from above satellite

Ground track
Ground track

The orbit data is extracted from the following two-line orbital elements,

1  6173U 72069A   18343.78990565  .00000137  00000-0  32016-4 0  9996
2  6173  89.8978 222.8718 0054939  51.5810 350.7223 14.48925723432813
Epoch (UTC): 09 December 2018 18:57:27
Eccentricity: 0.0054939
inclination: 89.8978°
perigee height: 690 km
apogee height: 768 km
right ascension of ascending node: 222.8718°
argument of perigee: 51.5810°
revolutions per day: 14.48925723
mean anomaly at epoch: 350.7223°
orbit number at epoch: 43281

The dashed part of the orbit path shows where the satellite is in the earth's shadow,  

DLR